DW6383 Weather Reports


Display with metric or nautical units.
time (UTC)temp
F
wind
direction
speed
MPH
gust
MPH
rain 1hr
in
rain 24hr
in
rain mn
in
humidity
%
barometer
mb
20200710133326 82 55 10.0 13.0 0.00 0.00 0.00 58 1013.0
20200710124326 81 69 8.0 14.0 0.00 0.00 0.00 61 1013.1
20200710122826 81 102 9.0 14.0 0.00 0.00 0.00 62 1013.1
20200710122326 82 105 14.0 13.0 0.00 0.00 0.00 61 1013.1
20200710121830 81 109 8.0 14.0 0.00 0.00 0.00 61 1013.2
20200710120328 82 110 7.0 14.0 0.00 0.00 0.00 60 1013.3
20200710114327 81 67 7.0 11.0 0.00 0.00 0.00 63 1013.4
20200710112826 80 71 7.0 12.0 0.00 0.00 0.00 66 1013.5
20200710111326 80 63 7.0 12.0 0.00 0.00 0.00 66 1013.6
20200710110328 80 64 8.0 13.0 0.00 0.00 0.00 65 1013.6
20200710101826 80 97 5.0 11.0 0.00 0.00 0.00 67 1013.7
20200710100826 80 65 7.0 10.0 0.00 0.00 0.00 64 1013.8
20200710095827 81 65 6.0 9.0 0.00 0.00 0.00 65 1013.8
20200710094828 81 51 4.0 10.0 0.00 0.00 0.00 65 1013.9
20200710092825 80 68 5.0 8.0 0.00 0.00 0.00 70 1013.9
20200710091826 79 75 5.0 8.0 0.00 0.00 0.00 70 1014.0
20200710085827 80 74 4.0 6.0 0.00 0.00 0.00 73 1014.0
20200710085327 80 27 2.0 8.0 0.00 0.00 0.00 73 1014.0
20200710084827 79 49 4.0 7.0 0.00 0.00 0.00 73 1014.1
20200710084327 80 70 4.0 6.0 0.00 0.00 0.00 73 1014.1
20200710082327 79 53 4.0 6.0 0.00 0.00 0.00 73 1014.1
20200710081827 79 77 3.0 6.0 0.00 0.00 0.00 72 1014.0
20200710080858 80 67 5.0 6.0 0.00 0.00 0.00 70 1014.0
20200710080327 80 28 0.0 5.0 0.00 0.00 0.00 70 1014.0
20200710074827 78 30 2.0 5.0 0.00 0.00 0.00 71 1014.0
20200710073827 79 70 2.0 5.0 0.00 0.00 0.00 70 1014.0
20200710070327 78 28 0.0 1.0 0.00 0.00 0.00 70 1014.1
20200710065827 78 55 0.0 2.0 0.00 0.00 0.00 70 1014.1
20200710061328 77 53 0.0 2.0 0.00 0.00 0.00 69 1014.0
20200710060826 77 53 1.0 1.0 0.00 0.00 0.00 69 1014.0
20200710060327 76 60 0.0 0.0 0.00 0.00 0.00 69 1013.9
20200710055826 76 94 0.0 0.0 0.00 0.00 0.00 67 1013.9
20200710055327 76 94 0.0 0.0 0.00 0.00 0.00 67 1013.9
20200710053828 76 201 0.0 0.0 0.00 0.00 0.00 64 1013.9
20200710052327 74 201 0.0 0.0 0.00 0.00 0.00 68 1013.8
20200710051828 73 201 0.0 0.0 0.00 0.00 0.00 70 1013.8
20200710051327 72 201 0.0 0.0 0.00 0.00 0.00 71 1013.8
20200710050829 71 201 0.0 0.0 0.00 0.00 0.00 73 1013.8
20200710045327 69 201 0.0 0.0 0.00 0.00 0.00 75 1013.8
20200710043827 68 201 0.0 0.0 0.00 0.00 0.00 76 1013.8
20200710042327 68 201 0.0 1.0 0.00 0.00 0.00 75 1013.8
20200710041827 68 201 0.0 1.0 0.00 0.00 0.00 75 1013.8
20200710040327 68 201 0.0 0.0 0.00 0.00 0.00 75 1013.7
20200710035827 68 201 0.0 0.0 0.00 0.00 0.00 76 1013.7
20200710034827 68 201 0.0 0.0 0.00 0.00 0.00 75 1013.6
20200710031827 68 201 0.0 1.0 0.00 0.00 0.00 74 1013.6
20200710030328 68 199 0.0 2.0 0.00 0.00 0.00 73 1013.6
20200710021327 69 226 0.0 0.0 0.00 0.00 0.00 72 1013.8
20200710020325 69 226 0.0 0.0 0.00 0.00 0.00 71 1013.9
20200710015324 69 226 0.0 1.0 0.00 0.00 0.00 71 1013.9
20200710013326 69 210 0.0 1.0 0.00 0.00 0.00 69 1013.9
20200710012326 69 215 0.0 0.0 0.00 0.00 0.00 68 1014.0
20200710010825 69 215 0.0 1.0 0.00 0.00 0.00 67 1014.1
20200710010325 69 215 0.0 0.0 0.00 0.00 0.00 67 1014.0
20200710004825 69 215 0.0 0.0 0.00 0.00 0.00 67 1014.2
20200710002824 69 215 0.0 0.0 0.00 0.00 0.00 66 1014.2
20200710001328 70 215 0.0 1.0 0.00 0.00 0.00 66 1014.3
20200710000324 70 213 0.0 0.0 0.00 0.00 0.00 66 1014.4
20200709234325 71 213 0.0 1.0 0.00 0.00 0.00 65 1014.4
20200709233826 71 189 0.0 0.0 0.00 0.00 0.00 65 1014.5
20200709233325 71 189 0.0 0.0 0.00 0.00 0.00 65 1014.4
20200709230325 72 189 0.0 0.0 0.00 0.00 0.00 63 1014.4
20200709225825 72 189 0.0 0.0 0.00 0.00 0.00 63 1014.5
20200709224825 72 189 0.0 0.0 0.00 0.00 0.00 63 1014.5
20200709224326 72 189 0.0 1.0 0.00 0.00 0.00 63 1014.5
20200709223825 72 189 0.0 1.0 0.00 0.00 0.00 64 1014.5
20200709222826 72 190 0.0 1.0 0.00 0.00 0.00 64 1014.5
20200709222329 72 214 0.0 2.0 0.00 0.00 0.00 64 1014.5
20200709221326 73 237 0.0 1.0 0.00 0.00 0.00 65 1014.5
20200709220325 73 207 0.0 1.0 0.00 0.00 0.00 65 1014.5
20200709215825 73 221 0.0 0.0 0.00 0.00 0.00 64 1014.5
20200709215326 73 221 0.0 1.0 0.00 0.00 0.00 64 1014.5
20200709211325 78 78 0.0 0.0 0.00 0.00 0.00 59 1014.4
20200709210825 78 78 0.0 0.0 0.00 0.00 0.00 59 1014.4
20200709205826 78 78 0.0 0.0 0.00 0.00 0.00 59 1014.4
20200709202325 78 105 0.0 1.0 0.00 0.00 0.00 58 1014.4
20200709195326 78 102 0.0 2.0 0.00 0.00 0.00 58 1014.3
20200709194326 78 115 0.0 6.0 0.00 0.00 0.00 58 1014.2
20200709193330 78 80 0.0 2.0 0.00 0.00 0.00 58 1014.1
20200709192826 78 84 0.0 5.0 0.00 0.00 0.00 58 1014.0
20200709191826 78 94 0.0 6.0 0.00 0.00 0.00 56 1014.0
20200709185826 78 92 2.0 6.0 0.00 0.00 0.00 55 1013.9
20200709184326 78 133 0.0 7.0 0.00 0.00 0.00 54 1013.8
20200709183826 79 100 5.0 8.0 0.00 0.00 0.00 53 1013.8
20200709182326 79 103 0.0 6.0 0.00 0.00 0.00 51 1013.8
20200709180325 79 92 5.0 8.0 0.00 0.00 0.00 48 1013.8
20200709175325 79 131 0.0 9.0 0.00 0.00 0.00 50 1013.8
20200709174325 79 96 9.0 13.0 0.00 0.00 0.00 49 1013.9
20200709170326 79 86 0.0 11.0 0.00 0.00 0.00 53 1014.1
20200709165830 79 107 9.0 13.0 0.00 0.00 0.00 50 1014.2
20200709165328 79 105 7.0 10.0 0.00 0.00 0.00 54 1014.2
20200709164827 78 70 2.0 12.0 0.00 0.00 0.00 54 1014.2
20200709164328 78 113 4.0 11.0 0.00 0.00 0.00 57 1014.3
20200709162327 79 113 0.0 9.0 0.00 0.00 0.00 59 1014.5
20200709161827 78 131 5.0 8.0 0.00 0.00 0.00 61 1014.5
20200709161330 79 99 7.0 8.0 0.00 0.00 0.00 59 1014.5
20200709160326 79 104 7.0 9.0 0.00 0.00 0.00 57 1014.6
20200709155332 79 124 8.0 8.0 0.00 0.00 0.00 57 1014.7
20200709153827 79 88 0.0 11.0 0.00 0.00 0.00 55 1014.8
20200709151826 79 90 5.0 11.0 0.00 0.00 0.00 53 1015.1
20200709151327 79 116 11.0 12.0 0.00 0.00 0.00 54 1015.1
20200709145330 79 81 5.0 11.0 0.00 0.00 0.00 52 1015.3
20200709143829 80 84 6.0 8.0 0.00 0.00 0.00 51 1015.4
20200709141830 80 82 0.0 7.0 0.00 0.00 0.00 53 1015.6
20200709141327 79 92 7.0 8.0 0.00 0.00 0.00 53 1015.6
20200709134828 79 67 5.0 10.0 0.00 0.00 0.00 53 1015.6